Weather in Moiynkum

Kazakhstan     44°17′05″N   72°56′35″E
temp.,
°C
wind,
m/s
gust,
m/s
humid.,
%
clouds,
%
prec.,
mm/h
press.,
hPa
HPBL,
m
7 march, sun
sun700:00+3ne5968100 0.0 1016186
03:00+2nne3571100 0.0 1017146
06:00+1nnw3376100 0.0 101991
09:00+2n2278100 0.0 1020130
12:00+2nne1178100 0.1 1021107
15:00+3ssw0080100 0.0 102083
18:00+4sse2284100 0.1 102077
21:00+4s3492100 0.3 102078
8 march, mon
mon800:00+5s3392100 0.4 101949
03:00+4sse3489100 0.0 101848
06:00+5s5888100 0.1 1019152
09:00+6ssw51087100 0.0 1020333
12:00+8sw5977100 0.1 1020846
15:00+10sw487099 0.1 10201217
18:00+10sw236691 0.1 102198
21:00+7sw227181 0.0 102322
9 march, tue
tue900:00+4wnw117948 0.0 102322
03:00+4e12790 0.0 102322
06:00+4ese34830 0.0 102223
09:00+5e34830 0.0 102171
12:00+11ene34602 0.0 1018402
15:00+14ne344587 0.0 1016765
18:00+14ne125380 0.0 101424
21:00+11e3461100 0.0 101443
10 march, wed
wed1000:00+8e347297 0.0 101330
03:00+7ese2371100 0.0 101024
06:00+6sw1273100 0.0 100922
09:00+9sw3570100 0.0 1010104
12:00+14sw91251100 0.0 10091511
15:00+11wsw101678100 2.6 1010929
18:00+12nw71166100 2.8 1013632
21:00+7nw61179100 0.0 1016591
11 march, thu
thu1100:00+4nw4575100 0.0 1019587
03:00+2nw6771100 0.0 1020681
06:000w4591100 0.6 1023362
09:000ssw2281100 0.1 1025310
12:00+3s2366100 0.1 1024675
15:00+6sse3456100 0.0 1022891
18:00+7se345250 0.0 1021916
21:00+4e22660 0.0 102122